カタログに戻る

FENGYUN 1C DEB

運用中LEO
NORAD 30710·DEBRIS·🇨🇳 China

打ち上げ May 10, 1999 から Taiyuan Satellite Launch Center

Loading…

次のパス (今後24時間)

TLE

最新Source: Space-Track

元期: Sep 14, 2026, 18:09 UTC

1 30710U 99025ARU 26257.75685331  .00001683  00000-0  10408-2 0  9999
2 30710 102.7496 256.4620 0221372 149.5966  24.9715 13.96132030986384

AllMySatでFENGYUN 1C DEBをリアルタイム追跡

Download on the App Store